Cadjehoun Airport

Jump to: basic info | weather | frequencies | runways | comments

Related pages: nearby airports | nearby navaids | notams | map

Basic information (top)

Codes: COO DBBB
Location: lon 6.357230, lat 2.384350, elev 19 ft / 6 m msl
Status: medium_airport
Scheduled airline service: yes
Links: Wikipedia Mobile

Weather (top)

Current conditions (rec'd 2014/10/22 13:00Z):

DBBB 221300Z 21012KT 9999 SCT013 31/26 Q1010 NOSIG

Airport forecast (rec'd 2014/10/22 12:00Z):

TAF DBBB 221100Z 2212/2318 22010KT 9999 SCT013 
      BECMG 2212/2214 SCT013 FEW023CB PROB30 
      TEMPO 2214/2218 TS 
      BECMG 2218/2220 SCT013 
      BECMG 2312/2314 SCT013 FEW023CB

Frequencies (top)

Verify before use: may be inaccurate or out of date.

A/G: 658.6 MHz (A/G VOICE RDO)
APP: 125.9 MHz (APP)
TWR: 125.9 MHz (TWR)

Runways (top)

06/24: 7,874 x 148 ft (2,400 x 45 m) — paved — lighted — threshold 06 displaced 125 ft (38 m)

Latest comments (top)

No comments yet for Cadjehoun Airport

More... (top)

See also NOTAMs and nearby airports and navaids, or visit the Cadjehoun Airport page at the main OurAirports website..